{"data":{"norad_id":58400,"intl_designator":"2023-179A","name":"MALLIGYONG-1","alt_names":[],"object_type":"PAYLOAD","status":"ACTIVE","operator":null,"country":"NKOR","launch_date":"2023-11-21","launch_site_code":"YUN","launch_vehicle":null,"mission":null,"orbit_class":"UNKNOWN","rcs_meters":null,"size_class":null,"mass_kg":null,"dimensions":null,"purposes":[],"wikipedia_slug":null,"has_3d_model":false,"image_url":null,"decayed_at":null,"tle_current":{"epoch":"2026-05-25T04:00:33.806016Z","epoch_age_seconds":71314,"freshness":"FRESH","line1":"1 58400U 23179A   26145.16705794  .00002742  00000+0  12122-3 0  9991","line2":"2 58400  97.3052  27.3630 0010217 106.2094 254.0268 15.22486859139256","mean_motion":15.22486859,"eccentricity":0.0010217,"inclination_deg":97.3052,"raan_deg":27.363,"arg_perigee_deg":106.2094,"mean_anomaly_deg":254.0268,"bstar":0.00012122,"rev_number":13925,"period_min":94.58209714505,"perigee_km":491.316592607,"apogee_km":505.36799039125,"semimajor_km":6876.4792914991,"source":"CELESTRAK","updated_at":"2026-05-25T13:38:00.723355Z"}}}